Flag for Jersey Weather past 2 weeks in Saint Helier, Jersey

55 °F

Partly sunny.

Feels Like: 51 °F
Forecast: 52 / 54 °F
Wind: 18 mph from Northwest

Location: Jersey Airport

Current Time: Nov 25, 2015 at 12:36:56 PM

Latest Report: Nov 25, 2015 at 12:20 PM

Visibility: N/A

Pressure: 29.98 "Hg

Humidity: 77%

Dew point: 48 °F

Location of Saint HelierLocation

Historic Weather in Saint Helier — Graph


Saint Helier temperature yesterday

Maximum temperature yesterday: 54 °F (at 8:50 AM)
Minimum temperature yesterday: 48 °F (at 3:50 AM)
Average temperature yesterday: 51 °F

Past Weeks' High & Low Weather Summary

High61 °F (Nov 18, 1:20 PM)100% (Nov 12, 5:20 AM)30.45 "Hg (Nov 12, 5:20 AM)
Low39 °F (Nov 22, 7:20 AM)50% (Nov 21, 1:50 PM)29.71 "Hg (Nov 21, 3:50 AM)
Average53 °F84%30.08 "Hg
* Reported Nov 10 11:20 AM — Nov 25 11:20 AM, Saint Helier, Weather by CustomWeather, © 2015

Note: Actual official high and low records may vary slightly from our data, if they occured in-between our weather recording intervals... More about our weather records


Saint Helier weather history for previous 24 hours

Time TempWeatherWind HumidityBarometerVisibility
11:20 AM
Wed, Nov 25
54 °FScattered clouds.23 mph82%29.98 "HgN/A
10:50 AM54 °FScattered clouds.28 mph82%29.98 "HgN/A
10:20 AM54 °FScattered clouds.23 mph82%29.98 "HgN/A
9:50 AM52 °FScattered showers. Broken clouds.26 mph88%29.98 "HgN/A
9:20 AM52 °FLight rain. Broken clouds.23 mph88%29.98 "HgN/A
8:50 AM52 °FLight rain. Scattered clouds.28 mph88%29.98 "HgN/A
8:20 AM52 °FLight rain. Scattered clouds.21 mph88%29.98 "HgN/A
7:50 AM52 °FScattered clouds.24 mph82%29.95 "HgN/A
7:20 AM52 °FPassing clouds.22 mph82%29.98 "HgN/A
6:50 AM52 °FPassing clouds.20 mph82%29.95 "HgN/A
6:20 AM52 °FPassing clouds.18 mph82%29.95 "HgN/A
5:50 AM52 °FPartly cloudy.28 mph82%29.95 "HgN/A
5:20 AM52 °FPassing clouds.21 mph82%29.95 "HgN/A
4:50 AM52 °FPassing clouds.20 mph88%29.95 "HgN/A
4:20 AM54 °FPassing clouds.18 mph82%29.95 "HgN/A
10:20 PM
Tue, Nov 24
52 °FPassing clouds.24 mph88%29.95 "HgN/A
9:50 PM52 °FPassing clouds.20 mph88%29.95 "HgN/A
9:20 PM52 °FPassing clouds.16 mph88%29.95 "HgN/A
8:50 PM52 °FPassing clouds.18 mph88%29.95 "HgN/A
8:20 PM52 °FPassing clouds.16 mph88%29.98 "HgN/A
7:50 PM52 °FPassing clouds.17 mph82%29.95 "HgN/A
7:20 PM52 °FPassing clouds.23 mph88%29.95 "HgN/A
6:50 PM52 °FSprinkles. Passing clouds.21 mph88%29.98 "HgN/A
6:20 PM52 °FPassing clouds.17 mph88%29.98 "HgN/A
5:50 PM52 °FPassing clouds.28 mph82%29.98 "HgN/A
5:20 PM52 °FPassing clouds.17 mph82%29.98 "HgN/A
4:50 PM52 °FPassing clouds.22 mph77%29.98 "HgN/A
4:20 PM52 °FPassing clouds.23 mph77%29.98 "HgN/A
3:50 PM52 °FPartly sunny.20 mph77%29.98 "HgN/A
3:20 PM52 °FScattered clouds.25 mph77%29.98 "HgN/A
2:50 PM52 °FBroken clouds.21 mph77%29.98 "HgN/A
2:20 PM52 °FBroken clouds.23 mph77%30.01 "HgN/A
1:50 PM52 °FLight rain. Broken clouds.17 mph82%30.01 "HgN/A
1:20 PM52 °FLight rain. Broken clouds.17 mph82%30.01 "HgN/A
12:50 PM52 °FPartly sunny.23 mph77%30.01 "HgN/A
12:20 PM52 °FPartly sunny.15 mph77%30.01 "HgN/A
Weather by CustomWeather, © 2015

See weather overviewHow to use our weather pages